SCP
0 0 0 0 0 0 0 0 0 0 0 -0 0 0 0 0 0 0 0 0 0 0 -0 0 -0 0 0 -0 0 0 0 0 0 0 0 0 0 0 0 0 0 0 0 0
0 0 0 0 0 0 0 0 0 0 -0 -0 0 0 0 0 0 0 0 0 0 0 0 0 -0 0 0 0 0 0 0 0 0 0 0 0 0 0 0 0 0 0 0 0
0 0 0 0 0 0 0 0 0 0 -0 -0 -0 0 0 0 0 0 0 0 0 0 0 0 0 0 0 0 0 0 0 0 0 0 0 0 0 0 0 0 0 0 0 0
0 0 0 0 0 -0 0 0 0 0 0 -0 0 -0 0 0 0 0 0 0 -0 0 0 0 0 -0 0 0 0 0 0 0 0 0 0 0 0 0 0 0 0 0 0 0
0 0 0 0 0 -0 0 0 0 0 -0 0 0 -0 0 0 0 0 0 -0 -0 0 0 0 0 -0 0 0 0 0 0 0 0 0 0 0 0 0 0 0 0 0 0 0
0 0 0 0 0 0 0 0 0 0 -0 -0 -0 0 0 0 0 0 0 -0 0 0 0 0 0 0 0 0 0 0 0 0 0 0 0 0 0 0 0 0 0 0 0 0
0 0 0 0 0 0 0 0 0 0 0 -0 -0 -0 -0 -0 0 0 0 -0 0 0 0 0 0 0 0 0 0 0 0 0 0 0 0 0 0 0 0 0 0 0 0 0
0 0 0 0 0 0 0 0 0 0 0 -0 -0 -0 0 -0 0 0 -0 -0 0 0 0 0 0 0 0 0 0 0 0 0 0 0 0 0 0 0 0 0 0 0 -0 -0
0 0 0 0 0 0 0 0 0 0 0 -0 -0 0 -0 0 -0 0 -0 -0 0 0 0 0 0 0 0 0 0 0 0 0 0 0 0 0 0 0 0 0 0 0 -0 -0
0 0 0 0 0 0 0 0 0 0 0 -0 -0 -0 -0 0 0 0 -0 -0 -0 -0 0 0 0 0 0 0 0 0 0 0 0 0 0 0 0 0 0 0 0 0 -0 -0
0 0 0 0 0 0 0 0 0 0 0 0 0 0 0 0 0 0 -0 0 0 0 0 0 0 0 0 0 0 0 0 0 0 0 0 0 0 0 0 0 0 -0 -0 -0
0 0 0 0 0 0 0 0 0 0 0 -0 0 -0 -0 -0 -0 0 0 -0 0 0 0 0 0 0 0 0 0 0 0 0 0 0 0 0 0 0 0 0 0 0 -0 -0
0 0 0 0 0 0 0 0 0 0 0 -0 -0 -0 0 0 0 0 0 0 -0 0 0 0 0 0 0 0 0 0 0 0 0 0 0 0 0 0 0 0 0 0 0 -0
0 0 -0 0 0 0 0 0 0 0 0 0 -0 -0 -0 0 0 0 0 -0 0 0 0 0 0 0 0 0 0 0 0 0 0 0 0 0 0 0 0 0 0 -0 0 -0
0 0 -0 -0 0 0 0 0 0 0 0 0 -0 -0 0 0 0 -0 -0 0 -0 -0 0 0 0 0 0 0 0 0 0 0 0 0 0 0 0 0 0 0 0 -0 -0 -0
-0 -0 -0 -0 -0 0 0 0 0 0 0 0 -0 -0 -0 -0 -0 0 -0 0 -0 -0 0 0 0 0 0 0 0 0 0 0 0 0 0 0 0 0 0 -0 0 0 -0 0
-0 -0 -0 -0 0 0 0 0 0 0 0 0 0 -0 -0 -0 0 0 -0 -0 -0 -0 0 0 0 0 0 0 0 0 0 0 0 0 0 0 0 0 0 0 0 0 0 0
-0 -0 -0 -0 0 0 0 0 0 0 0 0 0 -0 -0 -0 0 0 0 0 0 -0 -0 0 0 0 0 0 0 0 0 -0 0 0 0 0 0 0 0 0 0 0 0 0
-0 -0 -0 0 0 0 0 -0 0 0 0 0 0 -0 -0 -0 0 0 0 0 0 -0 -0 -0 0 0 0 0 0 0 0 0 0 0 0 0 0 0 0 0 0 0 0 0
0 0 0 0 0 -0 0 0 0 0 0 0 0 0 -0 -0 0 -0 0 0 0 0 0 0 0 0 0 0 0 0 0 -0 -0 0 0 0 0 0 0 0 0 0 0 0
0 0 0 0 0 0 0 0 0 0 0 0 0 0 0 0 0 0 0 0 0 0 0 0 0 0 0 0 0 0 0 0 0 0 0 0 0 0 0 0 0 0 0 0
0 0 0 0 0 0 0 0 0 0 0 0 0 0 0 0 0 0 0 0 0 0 0 0 0 0 0 0 0 0 0 -0 -0 0 0 0 0 0 0 0 0 0 0 0
0 0 0 0 0 0 0 0 0 0 0 0 0 0 0 0 0 0 0 0 0 0 0 0 0 0 0 0 0 0 0 0 0 0 0 0 0 0 0 0 0 0 0 0
0 0 0 0 0 0 0 0 0 0 0 0 0 0 0 0 0 0 0 0 0 0 0 0 0 0 0 0 0 0 0 0 0 0 -0 -0 -0 -0 -0 0 0 0 0 0
0 0 0 0 0 0 0 0 0 0 0 0 0 0 0 0 0 0 0 0 0 0 0 0 0 0 0 0 0 0 0 0 0 0 -0 -0 -0 -0 -0 0 0 0 0 0
0 0 0 0 0 0 0 0 0 0 0 0 0 0 -0 0 0 0 0 0 0 0 0 0 0 0 0 0 0 0 0 0 0 -0 -0 -0 -0 0 0 0 0 0 0 0
0 0 0 0 0 0 0 0 0 0 0 0 0 0 0 0 0 0 0 0 0 0 0 0 0 0 0 0 0 0 0 0 0 -0 -0 -0 -0 -0 -0 0 0 0 0 0
Wind_Speed_500mb
66 71 76 79 80 82 75 19 3 27 46 9 8 10 30 26 25 19 1 8 10 3 11 5 7 7 10 22 17 18 6 23 38 49 14 29 35 33 8 9 9 6 7 8
64 68 72 75 77 69 55 25 12 19 47 10 18 17 18 23 31 25 3 4 7 7 4 1 8 3 18 58 27 6 17 17 25 26 17 29 33 36 18 11 5 5 7 8
63 66 68 71 75 63 34 16 10 14 20 17 21 19 14 35 38 15 25 9 6 7 4 1 5 4 21 45 18 18 18 15 32 18 33 33 28 43 32 21 6 11 6 15
60 63 64 66 72 63 29 25 7 14 14 18 29 24 18 32 22 13 25 12 29 6 6 3 2 31 20 10 14 5 6 18 16 18 34 37 25 44 28 22 19 15 15 15
57 59 60 60 65 64 40 17 15 17 19 31 26 23 14 28 40 13 23 26 33 15 7 13 13 38 14 10 19 25 2 9 14 23 40 42 26 36 40 31 18 8 26 15
55 56 55 54 57 60 23 35 34 13 22 20 19 22 24 27 40 19 28 35 14 11 14 13 5 4 7 11 9 7 4 10 17 13 31 34 22 9 19 17 23 17 17 14
53 51 52 49 49 45 37 28 28 12 12 15 19 30 38 45 38 30 22 42 14 24 13 6 4 5 11 6 15 7 8 8 4 13 26 23 7 2 6 12 10 11 23 34
49 47 47 45 44 43 38 17 20 12 12 26 25 40 29 51 53 42 21 56 24 20 5 0 2 4 6 17 17 16 11 9 10 11 8 13 9 7 8 12 6 15 37 34
46 44 44 43 43 43 34 16 25 20 14 7 26 28 37 15 30 32 37 78 40 40 2 3 7 7 4 1 7 12 14 21 11 6 8 6 9 5 8 7 9 21 40 42
45 42 42 41 40 41 38 12 25 22 13 16 22 10 15 21 24 14 21 41 26 43 13 7 7 5 4 5 6 6 8 9 11 7 8 4 2 12 10 10 8 45 48 53
42 40 38 37 37 39 37 21 24 26 11 39 18 27 22 24 21 11 27 18 7 8 13 7 5 6 5 6 8 6 5 6 5 4 6 6 25 9 3 6 29 48 55 48
40 38 34 34 34 35 37 32 30 34 22 28 36 18 27 28 25 20 13 9 7 3 5 4 4 5 4 2 5 9 5 4 9 5 5 13 16 10 13 11 37 41 50 46
38 35 33 31 31 31 33 38 27 39 15 27 13 19 34 36 40 21 8 5 11 14 11 4 1 8 5 4 5 5 6 4 7 6 16 19 26 24 18 28 37 42 57 58
37 35 33 30 29 28 31 34 19 30 15 7 13 25 34 47 39 30 15 10 15 27 18 8 4 4 9 6 5 6 7 6 12 14 16 28 37 33 35 49 50 55 53 54
34 33 31 29 29 25 27 18 8 22 15 9 25 30 33 50 33 29 22 16 21 28 10 6 7 6 6 5 5 9 12 4 1 6 14 32 26 32 38 54 55 52 62 62
35 30 30 28 25 19 21 4 5 23 28 10 8 19 27 56 28 26 24 17 21 33 14 9 10 9 4 5 6 27 41 49 27 21 47 51 45 46 50 66 68 67 65 60
37 32 30 25 18 14 10 6 12 23 33 5 11 14 20 51 25 20 20 21 16 9 7 13 15 25 19 7 7 19 43 51 44 37 38 43 41 41 56 58 56 49 43 40
34 32 23 17 13 14 13 14 15 29 10 4 5 8 14 35 16 15 26 19 11 20 7 7 9 10 11 9 18 26 39 38 40 46 50 53 46 43 44 38 33 37 35 28
29 24 15 11 8 4 7 17 20 10 5 4 3 6 8 25 13 11 11 13 6 8 6 7 6 10 11 12 8 7 12 30 39 44 42 39 40 37 33 29 26 26 23 16
22 14 5 5 5 11 14 5 3 3 3 3 4 4 6 16 11 8 13 9 5 4 7 5 7 5 11 19 23 30 39 40 34 42 27 26 27 25 22 19 15 12 9 7
10 5 5 6 9 4 6 5 2 2 3 1 4 3 7 9 6 6 8 3 3 3 6 4 4 4 5 12 24 29 29 30 32 30 28 22 18 15 11 8 5 2 3 8
11 12 13 3 2 3 5 2 2 4 2 1 4 7 6 7 7 6 7 5 2 6 3 4 5 5 18 24 30 33 31 28 28 24 22 18 14 10 5 2 4 6 9 12
4 4 3 2 4 1 7 6 4 3 4 1 5 6 4 5 3 4 4 5 5 2 2 4 4 21 26 29 31 31 26 24 23 20 17 13 11 9 7 5 4 6 8 12
2 5 6 7 6 6 5 4 3 2 4 4 5 7 3 3 3 2 3 4 3 1 3 5 9 29 30 29 26 24 23 20 19 19 18 17 16 15 13 10 8 8 9 11
6 6 7 9 5 5 6 6 3 5 5 5 5 3 3 1 2 3 2 3 3 4 4 4 23 35 36 31 25 20 19 18 20 20 20 20 19 17 15 13 11 10 9 7
8 9 7 7 4 6 6 9 6 5 4 5 2 1 3 2 2 2 3 2 2 0 4 6 31 35 33 29 22 16 15 16 20 23 22 19 17 16 14 11 11 10 11 13
8 8 12 10 13 10 5 6 4 10 9 2 0 2 3 0 3 3 1 0 2 6 3 19 32 38 33 27 21 16 14 15 19 22 21 17 18 16 11 10 12 13 14 13
Wind_Direction_500mb
354 353 357 358 2 354 359 3 356 350 0 2 351 336 313 298 313 345 153 291 280 312 354 71 99 143 252 178 215 214 212 157 158 169 189 181 179 187 176 137 152 63 90 127
356 353 356 358 6 359 353 343 313 357 24 16 353 329 320 333 329 335 274 243 252 343 342 103 110 198 198 177 199 182 165 154 138 167 133 172 181 179 187 107 132 81 102 146
356 355 356 359 4 8 8 6 353 343 24 4 335 328 337 342 336 334 337 349 219 266 246 72 136 243 157 191 227 20 32 168 165 173 167 155 170 170 177 193 159 138 101 145
357 357 359 1 3 14 27 19 15 349 322 344 329 345 328 332 346 331 342 336 356 346 331 40 34 130 130 157 217 258 259 163 184 145 138 163 146 174 176 165 156 190 177 164
357 359 2 3 5 13 34 23 355 326 296 311 330 355 330 331 333 316 329 340 338 27 38 28 54 125 121 203 252 259 280 130 134 140 147 158 145 167 184 191 177 106 140 146
356 0 2 6 7 14 15 1 357 309 315 324 342 348 338 317 335 305 325 325 326 23 3 337 319 9 232 281 244 153 33 146 131 129 151 146 161 159 190 172 190 156 169 164
355 1 2 5 7 13 360 355 352 318 320 333 330 321 337 338 336 330 333 352 2 342 328 58 85 164 192 179 59 40 170 103 50 132 157 162 38 237 173 158 137 175 125 144
354 360 359 0 2 2 359 358 359 333 307 310 313 329 334 335 347 353 357 360 354 339 313 103 115 161 145 39 35 13 41 112 83 127 107 123 127 98 123 170 145 186 143 133
349 357 355 354 358 358 3 17 359 349 301 292 324 317 336 332 342 347 354 2 6 13 326 18 53 72 124 209 90 355 30 55 95 100 87 115 118 143 348 223 159 183 149 141
346 352 353 353 354 357 356 346 351 348 301 292 325 318 321 333 337 327 313 349 344 12 3 58 49 71 342 50 47 28 25 26 64 73 98 88 56 316 306 202 120 159 147 143
344 347 351 351 351 353 352 356 344 339 291 296 298 309 302 328 347 338 320 336 23 336 18 7 41 50 38 70 29 20 71 90 67 91 104 136 5 304 310 54 141 147 148 148
338 342 344 346 346 349 344 345 347 335 284 286 308 340 1 338 336 299 306 296 302 326 286 292 326 81 60 120 102 19 75 37 133 347 36 0 8 327 316 146 145 143 139 134
333 334 337 340 340 341 339 335 343 348 310 314 319 344 2 6 360 334 262 308 341 313 311 311 31 84 330 87 77 121 90 51 88 174 19 39 48 61 81 132 130 133 138 135
329 327 333 332 331 332 329 333 343 355 320 304 291 340 2 6 11 4 339 254 357 1 21 16 31 81 358 39 31 55 354 352 125 97 116 82 54 73 95 101 111 115 118 128
322 322 326 325 319 326 322 326 17 8 6 300 294 328 358 8 19 36 52 101 35 25 22 8 31 26 48 28 37 13 351 104 96 87 87 106 84 88 103 106 108 114 121 119
313 314 319 319 309 322 331 318 297 351 348 311 310 318 340 5 24 42 70 94 61 62 25 9 16 6 44 69 72 18 62 72 83 92 95 100 97 95 104 104 110 112 114 118
310 311 318 310 291 293 290 277 295 317 335 297 298 305 338 355 4 10 14 26 47 71 74 31 13 13 28 38 54 20 70 86 85 95 103 78 95 94 100 99 104 107 107 109
309 312 316 297 273 276 269 253 284 313 310 279 295 295 321 356 343 351 355 354 38 36 72 44 18 7 51 68 69 76 79 86 82 86 87 92 99 104 105 110 116 116 114 112
312 311 307 285 249 230 226 278 297 292 256 288 283 325 317 342 346 337 340 355 41 30 40 37 42 8 43 347 55 55 112 105 109 104 106 106 102 104 105 107 104 108 113 126
316 312 253 214 223 278 287 274 256 242 245 266 277 319 300 332 334 334 350 20 22 44 32 7 63 66 52 51 86 96 107 114 118 115 103 107 103 106 107 105 112 125 150 182
325 295 246 235 274 269 243 242 263 327 213 300 306 284 311 331 322 329 16 350 354 60 1 60 79 75 48 81 97 103 105 107 107 109 112 112 105 100 93 95 108 145 264 278
327 317 305 306 218 204 249 253 252 231 297 230 299 323 290 303 320 300 357 346 329 83 331 78 96 101 130 124 112 104 98 92 92 87 85 80 74 70 56 354 312 298 292 291
0 305 312 326 221 191 223 200 184 224 205 261 334 322 306 307 326 280 316 347 40 309 62 83 86 148 144 136 125 112 98 87 84 79 69 58 44 30 18 352 328 309 303 300
219 239 276 218 191 232 197 184 173 161 236 288 327 295 320 332 303 336 319 26 262 82 87 81 153 163 155 146 135 117 102 85 69 58 47 39 35 29 18 14 3 351 334 330
227 216 241 221 270 245 187 193 206 226 225 268 276 247 284 332 286 0 293 158 62 347 43 74 161 161 160 154 142 117 96 78 60 46 37 31 27 24 15 13 21 33 42 54
228 229 254 227 270 212 205 217 242 195 227 205 147 256 252 107 344 53 54 91 161 94 358 125 153 159 160 154 144 123 105 80 58 44 33 29 31 29 25 33 47 54 79 90
225 232 237 251 281 256 252 190 160 164 167 186 165 235 77 49 179 132 12 127 327 308 265 152 163 164 161 161 156 145 129 90 63 44 29 31 34 35 46 61 63 83 96 76
Wind_Speed_850mb
66 71 76 79 80 82 75 19 3 27 46 9 8 10 30 26 25 19 1 8 10 3 11 5 7 7 10 22 17 18 6 23 38 49 14 29 35 33 8 9 9 6 7 8
64 68 72 75 77 69 55 25 12 19 47 10 18 17 18 23 31 25 3 4 7 7 4 1 8 3 18 58 27 6 17 17 25 26 17 29 33 36 18 11 5 5 7 8
63 66 68 71 75 63 34 16 10 14 20 17 21 19 14 35 38 15 25 9 6 7 4 1 5 4 21 45 18 18 18 15 32 18 33 33 28 43 32 21 6 11 6 15
60 63 64 66 72 63 29 25 7 14 14 18 29 24 18 32 22 13 25 12 29 6 6 3 2 31 20 10 14 5 6 18 16 18 34 37 25 44 28 22 19 15 15 15
57 59 60 60 65 64 40 17 15 17 19 31 26 23 14 28 40 13 23 26 33 15 7 13 13 38 14 10 19 25 2 9 14 23 40 42 26 36 40 31 18 8 26 15
55 56 55 54 57 60 23 35 34 13 22 20 19 22 24 27 40 19 28 35 14 11 14 13 5 4 7 11 9 7 4 10 17 13 31 34 22 9 19 17 23 17 17 14
53 51 52 49 49 45 37 28 28 12 12 15 19 30 38 45 38 30 22 42 14 24 13 6 4 5 11 6 15 7 8 8 4 13 26 23 7 2 6 12 10 11 23 34
49 47 47 45 44 43 38 17 20 12 12 26 25 40 29 51 53 42 21 56 24 20 5 0 2 4 6 17 17 16 11 9 10 11 8 13 9 7 8 12 6 15 37 34
46 44 44 43 43 43 34 16 25 20 14 7 26 28 37 15 30 32 37 78 40 40 2 3 7 7 4 1 7 12 14 21 11 6 8 6 9 5 8 7 9 21 40 42
45 42 42 41 40 41 38 12 25 22 13 16 22 10 15 21 24 14 21 41 26 43 13 7 7 5 4 5 6 6 8 9 11 7 8 4 2 12 10 10 8 45 48 53
42 40 38 37 37 39 37 21 24 26 11 39 18 27 22 24 21 11 27 18 7 8 13 7 5 6 5 6 8 6 5 6 5 4 6 6 25 9 3 6 29 48 55 48
40 38 34 34 34 35 37 32 30 34 22 28 36 18 27 28 25 20 13 9 7 3 5 4 4 5 4 2 5 9 5 4 9 5 5 13 16 10 13 11 37 41 50 46
38 35 33 31 31 31 33 38 27 39 15 27 13 19 34 36 40 21 8 5 11 14 11 4 1 8 5 4 5 5 6 4 7 6 16 19 26 24 18 28 37 42 57 58
37 35 33 30 29 28 31 34 19 30 15 7 13 25 34 47 39 30 15 10 15 27 18 8 4 4 9 6 5 6 7 6 12 14 16 28 37 33 35 49 50 55 53 54
34 33 31 29 29 25 27 18 8 22 15 9 25 30 33 50 33 29 22 16 21 28 10 6 7 6 6 5 5 9 12 4 1 6 14 32 26 32 38 54 55 52 62 62
35 30 30 28 25 19 21 4 5 23 28 10 8 19 27 56 28 26 24 17 21 33 14 9 10 9 4 5 6 27 41 49 27 21 47 51 45 46 50 66 68 67 65 60
37 32 30 25 18 14 10 6 12 23 33 5 11 14 20 51 25 20 20 21 16 9 7 13 15 25 19 7 7 19 43 51 44 37 38 43 41 41 56 58 56 49 43 40
34 32 23 17 13 14 13 14 15 29 10 4 5 8 14 35 16 15 26 19 11 20 7 7 9 10 11 9 18 26 39 38 40 46 50 53 46 43 44 38 33 37 35 28
29 24 15 11 8 4 7 17 20 10 5 4 3 6 8 25 13 11 11 13 6 8 6 7 6 10 11 12 8 7 12 30 39 44 42 39 40 37 33 29 26 26 23 16
22 14 5 5 5 11 14 5 3 3 3 3 4 4 6 16 11 8 13 9 5 4 7 5 7 5 11 19 23 30 39 40 34 42 27 26 27 25 22 19 15 12 9 7
10 5 5 6 9 4 6 5 2 2 3 1 4 3 7 9 6 6 8 3 3 3 6 4 4 4 5 12 24 29 29 30 32 30 28 22 18 15 11 8 5 2 3 8
11 12 13 3 2 3 5 2 2 4 2 1 4 7 6 7 7 6 7 5 2 6 3 4 5 5 18 24 30 33 31 28 28 24 22 18 14 10 5 2 4 6 9 12
4 4 3 2 4 1 7 6 4 3 4 1 5 6 4 5 3 4 4 5 5 2 2 4 4 21 26 29 31 31 26 24 23 20 17 13 11 9 7 5 4 6 8 12
2 5 6 7 6 6 5 4 3 2 4 4 5 7 3 3 3 2 3 4 3 1 3 5 9 29 30 29 26 24 23 20 19 19 18 17 16 15 13 10 8 8 9 11
6 6 7 9 5 5 6 6 3 5 5 5 5 3 3 1 2 3 2 3 3 4 4 4 23 35 36 31 25 20 19 18 20 20 20 20 19 17 15 13 11 10 9 7
8 9 7 7 4 6 6 9 6 5 4 5 2 1 3 2 2 2 3 2 2 0 4 6 31 35 33 29 22 16 15 16 20 23 22 19 17 16 14 11 11 10 11 13
8 8 12 10 13 10 5 6 4 10 9 2 0 2 3 0 3 3 1 0 2 6 3 19 32 38 33 27 21 16 14 15 19 22 21 17 18 16 11 10 12 13 14 13
Wind_Direction_850mb
354 353 357 358 2 354 359 3 356 350 0 2 351 336 313 298 313 345 153 291 280 312 354 71 99 143 252 178 215 214 212 157 158 169 189 181 179 187 176 137 152 63 90 127
356 353 356 358 6 359 353 343 313 357 24 16 353 329 320 333 329 335 274 243 252 343 342 103 110 198 198 177 199 182 165 154 138 167 133 172 181 179 187 107 132 81 102 146
356 355 356 359 4 8 8 6 353 343 24 4 335 328 337 342 336 334 337 349 219 266 246 72 136 243 157 191 227 20 32 168 165 173 167 155 170 170 177 193 159 138 101 145
357 357 359 1 3 14 27 19 15 349 322 344 329 345 328 332 346 331 342 336 356 346 331 40 34 130 130 157 217 258 259 163 184 145 138 163 146 174 176 165 156 190 177 164
357 359 2 3 5 13 34 23 355 326 296 311 330 355 330 331 333 316 329 340 338 27 38 28 54 125 121 203 252 259 280 130 134 140 147 158 145 167 184 191 177 106 140 146
356 0 2 6 7 14 15 1 357 309 315 324 342 348 338 317 335 305 325 325 326 23 3 337 319 9 232 281 244 153 33 146 131 129 151 146 161 159 190 172 190 156 169 164
355 1 2 5 7 13 360 355 352 318 320 333 330 321 337 338 336 330 333 352 2 342 328 58 85 164 192 179 59 40 170 103 50 132 157 162 38 237 173 158 137 175 125 144
354 360 359 0 2 2 359 358 359 333 307 310 313 329 334 335 347 353 357 360 354 339 313 103 115 161 145 39 35 13 41 112 83 127 107 123 127 98 123 170 145 186 143 133
349 357 355 354 358 358 3 17 359 349 301 292 324 317 336 332 342 347 354 2 6 13 326 18 53 72 124 209 90 355 30 55 95 100 87 115 118 143 348 223 159 183 149 141
346 352 353 353 354 357 356 346 351 348 301 292 325 318 321 333 337 327 313 349 344 12 3 58 49 71 342 50 47 28 25 26 64 73 98 88 56 316 306 202 120 159 147 143
344 347 351 351 351 353 352 356 344 339 291 296 298 309 302 328 347 338 320 336 23 336 18 7 41 50 38 70 29 20 71 90 67 91 104 136 5 304 310 54 141 147 148 148
338 342 344 346 346 349 344 345 347 335 284 286 308 340 1 338 336 299 306 296 302 326 286 292 326 81 60 120 102 19 75 37 133 347 36 0 8 327 316 146 145 143 139 134
333 334 337 340 340 341 339 335 343 348 310 314 319 344 2 6 360 334 262 308 341 313 311 311 31 84 330 87 77 121 90 51 88 174 19 39 48 61 81 132 130 133 138 135
329 327 333 332 331 332 329 333 343 355 320 304 291 340 2 6 11 4 339 254 357 1 21 16 31 81 358 39 31 55 354 352 125 97 116 82 54 73 95 101 111 115 118 128
322 322 326 325 319 326 322 326 17 8 6 300 294 328 358 8 19 36 52 101 35 25 22 8 31 26 48 28 37 13 351 104 96 87 87 106 84 88 103 106 108 114 121 119
313 314 319 319 309 322 331 318 297 351 348 311 310 318 340 5 24 42 70 94 61 62 25 9 16 6 44 69 72 18 62 72 83 92 95 100 97 95 104 104 110 112 114 118
310 311 318 310 291 293 290 277 295 317 335 297 298 305 338 355 4 10 14 26 47 71 74 31 13 13 28 38 54 20 70 86 85 95 103 78 95 94 100 99 104 107 107 109
309 312 316 297 273 276 269 253 284 313 310 279 295 295 321 356 343 351 355 354 38 36 72 44 18 7 51 68 69 76 79 86 82 86 87 92 99 104 105 110 116 116 114 112
312 311 307 285 249 230 226 278 297 292 256 288 283 325 317 342 346 337 340 355 41 30 40 37 42 8 43 347 55 55 112 105 109 104 106 106 102 104 105 107 104 108 113 126
316 312 253 214 223 278 287 274 256 242 245 266 277 319 300 332 334 334 350 20 22 44 32 7 63 66 52 51 86 96 107 114 118 115 103 107 103 106 107 105 112 125 150 182
325 295 246 235 274 269 243 242 263 327 213 300 306 284 311 331 322 329 16 350 354 60 1 60 79 75 48 81 97 103 105 107 107 109 112 112 105 100 93 95 108 145 264 278
327 317 305 306 218 204 249 253 252 231 297 230 299 323 290 303 320 300 357 346 329 83 331 78 96 101 130 124 112 104 98 92 92 87 85 80 74 70 56 354 312 298 292 291
0 305 312 326 221 191 223 200 184 224 205 261 334 322 306 307 326 280 316 347 40 309 62 83 86 148 144 136 125 112 98 87 84 79 69 58 44 30 18 352 328 309 303 300
219 239 276 218 191 232 197 184 173 161 236 288 327 295 320 332 303 336 319 26 262 82 87 81 153 163 155 146 135 117 102 85 69 58 47 39 35 29 18 14 3 351 334 330
227 216 241 221 270 245 187 193 206 226 225 268 276 247 284 332 286 0 293 158 62 347 43 74 161 161 160 154 142 117 96 78 60 46 37 31 27 24 15 13 21 33 42 54
228 229 254 227 270 212 205 217 242 195 227 205 147 256 252 107 344 53 54 91 161 94 358 125 153 159 160 154 144 123 105 80 58 44 33 29 31 29 25 33 47 54 79 90
225 232 237 251 281 256 252 190 160 164 167 186 165 235 77 49 179 132 12 127 327 308 265 152 163 164 161 161 156 145 129 90 63 44 29 31 34 35 46 61 63 83 96 76